This demonstration page uses our WeatherBlox Daily Observations layout. Learn more.

Left ArrowRight Arrow

38.88101, -77.10428

Hourly Observations for July 25, 2020

Temp ( °F °C ) Dew Point ( °F °C ) Humidity (%) Winds ( mph kmh ) Pressure ( in mb ) Visibility ( mi km ) Precip ( " mm )
12:15 am 00:15 Mostly Cloudy 77 25 73 22.8 88 88 NE 10 17 30.1 1019 10 16.0934 0 0
12:26 am 00:26 Mostly Cloudy 77 25 72 22.2 85 85 NE 12 19 30.11 1020 10 16.0934 0 0
12:52 am 00:52 Partly Cloudy 76 24.4 71 21.7 85 85 SE 5 7 30.08 1019 10 16.0934 0 0
1:52 am 01:52 Clear 76 24.4 71 21.7 85 85 N 5 7 30.08 1019 10 16.0934 0 0
2:52 am 02:52 Clear 76 24.4 70 21.1 82 82 NE 3 6 30.08 1019 10 16.0934 0 0
3:52 am 03:52 Clear 75 23.9 71 21.7 88 88 NE 5 7 30.06 1018 10 16.0934 0 0
4:52 am 04:52 Mostly Clear 75 23.9 71 21.7 88 88 NE 3 6 30.07 1018 10 16.0934 0 0
5:52 am 05:52 Mostly Clear 74 23.3 71 21.7 91 91 ENE 5 7 30.08 1019 10 16.0934 0 0
6:52 am 06:52 Mostly Sunny 75 23.9 72 22.2 90 90 NNE 3 6 30.1 1019 10 16.0934 0 0
7:52 am 07:52 Partly Cloudy 77 25 72 22.2 85 85 Calm 30.12 1020 10 16.0934 0 0
8:52 am 08:52 Partly Cloudy 81 27.2 73 22.8 77 77 Calm 30.13 1020 10 16.0934 0 0
9:52 am 09:52 Partly Cloudy 82 27.8 73 22.8 74 74 Calm 30.13 1020 10 16.0934 0 0
10:52 am 10:52 Partly Cloudy 85 29.4 73 22.8 68 68 ENE 5 7 30.13 1020 10 16.0934 0 0
11:52 am 11:52 Mostly Cloudy 86 30 73 22.8 65 65 Calm 30.12 1020 10 16.0934 0 0
12:52 pm 12:52 Mostly Cloudy 90 32.2 72 22.2 56 56 E 5 7 30.11 1020 10 16.0934 0 0
1:52 pm 13:52 Mostly Cloudy 89 31.7 72 22.2 57 57 ENE 5 7 30.1 1019 10 16.0934 0 0
2:52 pm 14:52 Partly Cloudy 93 33.9 71 21.7 49 49 VRB 3 6 30.09 1019 10 16.0934 0 0
3:52 pm 15:52 Partly Cloudy 90 32.2 73 22.8 58 58 SE 5 7 30.07 1018 10 16.0934 0 0
4:52 pm 16:52 Partly Cloudy 90 32.2 73 22.8 58 58 ESE 8 13 30.05 1018 10 16.0934 0 0
5:52 pm 17:52 Partly Cloudy 90 32.2 73 22.8 58 58 SE 5 7 30.04 1017 10 16.0934 0 0
6:52 pm 18:52 Partly Cloudy 88 31.1 76 24.4 68 68 S 9 15 30.05 1018 10 16.0934 0 0
7:52 pm 19:52 Partly Cloudy 86 30 73 22.8 65 65 SSE 9 15 30.05 1018 10 16.0934 0 0
8:52 pm 20:52 Partly Cloudy 85 29.4 74 23.3 70 70 S 8 13 30.05 1018 10 16.0934 0 0
9:52 pm 21:52 Partly Cloudy 84 28.9 74 23.3 72 72 S 8 13 30.08 1019 10 16.0934 0 0
10:52 pm 22:52 Partly Cloudy 83 28.3 74 23.3 74 74 S 8 13 30.09 1019 10 16.0934 0 0
11:52 pm 23:52 Partly Cloudy 82 27.8 75 23.9 79 79 S 7 11 30.09 1019 10 16.0934 0 0

Powered by AerisWeather